Adana/Sakirpasa, Turkey

4:24 PM +03 on February 21, 2017 (GMT +0300)
Adana

Weather History for LTAF - September, 2012

Change the Weather History Date:

Tuesday, September 4, 2012

  Actual Average Record
Temperature  
Mean Temperature 86 °F -  
Max Temperature 98 °F 87 °F 98 °F (2012)
Min Temperature 73 °F 65 °F 69 °F (1998)
Cooling Degree Days 20    
Growing Degree Days 36 (Base 50)    
Moisture  
Dew Point 66 °F    
Average Humidity 58    
Maximum Humidity 83    
Minimum Humidity 24    
Precipitation  
Precipitation 0.00 in 0.02 in - ()
Sea Level Pressure  
Sea Level Pressure 29.73 in    
Wind  
Wind Speed 3 mph ()    
Max Wind Speed 14 mph    
Max Gust Speed -    
Visibility 2.6 miles    
Events      
Averages and records for this station are not official NWS values.
T = Trace of Precipitation, MM = Missing Value Source: Averaged Metar Reports

Daily Weather History Graph

Daily Weather History Graph

Search for Another Location

Airport or City:

Trip Planner

Search our weather history database for the weather conditions in past years. The results will help you decide how hot, cold, wet, or windy it might be!

Date:

Astronomy

Sep. 04, 2012 Rise Set
Actual Time 6:12 AM EEST 7:02 PM EEST
Civil Twilight 5:45 AM EEST 7:29 PM EEST
Nautical Twilight 5:14 AM EEST 8:00 PM EEST
Astronomical Twilight 4:42 AM EEST 8:32 PM EEST
Moon 8:51 PM EEST (9/4) 9:51 AM EEST (9/4)
Length of Visible Light 13h 43m
Length of Day
12h 50m
Waning Gibbous, 86% of the Moon is Illuminated
Sep 4
Waning Gibbous
Sep 8
Last Quarter
Sep 16
New
Sep 22
First Quarter
Sep 30
Full

Hourly Weather History & Observations

Time (EEST) Temp. Heat Index Dew Point Humidity Pressure Visibility Wind Dir Wind Speed Gust Speed Precip Events Conditions
12:20 AM 78.8 °F - 69.8 °F 74% 29.77 in - Variable 1.2 mph - N/A   Clear
12:50 AM 77.0 °F - 69.8 °F 78% 29.77 in - East 1.2 mph - N/A   Clear
1:20 AM 77.0 °F - 69.8 °F 78% 29.77 in - Calm Calm - N/A   Clear
1:50 AM 77.0 °F - 69.8 °F 78% 29.74 in - Calm Calm - N/A   Clear
2:20 AM 77.0 °F - 69.8 °F 78% 29.74 in - Variable 1.2 mph - N/A   Clear
2:50 AM 75.2 °F - 68.0 °F 78% 29.74 in - WSW 1.2 mph - N/A   Clear
3:20 AM 75.2 °F - 68.0 °F 78% 29.74 in - NW 3.5 mph - N/A   Clear
3:50 AM 75.2 °F - 66.2 °F 73% 29.74 in - Calm Calm - N/A   Clear
4:20 AM 75.2 °F - 66.2 °F 73% 29.74 in - Calm Calm - N/A   Clear
4:50 AM 73.4 °F - 66.2 °F 78% 29.74 in - Calm Calm - N/A   Clear
5:20 AM 75.2 °F - 66.2 °F 73% 29.74 in - NW 3.5 mph - N/A   Clear
5:50 AM 77.0 °F - 66.2 °F 69% 29.74 in - North 3.5 mph - N/A   Clear
6:20 AM 75.2 °F - 64.4 °F 69% 29.74 in - Variable 1.2 mph - N/A   Clear
6:50 AM 73.4 °F - 64.4 °F 73% 29.77 in - Calm Calm - N/A   Clear
7:20 AM 78.8 °F - 66.2 °F 65% 29.77 in - North 3.5 mph - N/A   Clear
7:50 AM 80.6 °F 82.7 °F 66.2 °F 61% 29.77 in - North 3.5 mph - N/A   Clear
8:20 AM 84.2 °F 86.6 °F 66.2 °F 55% 29.77 in - Variable 2.3 mph - N/A   Clear
8:50 AM 84.2 °F 87.3 °F 68.0 °F 58% 29.77 in - Variable 2.3 mph - N/A   Clear
9:20 AM 86.0 °F 89.4 °F 68.0 °F 55% 29.77 in - Variable 3.5 mph - N/A   Clear
9:50 AM 87.8 °F 90.4 °F 66.2 °F 49% 29.77 in - NNW 3.5 mph - N/A   Clear
10:20 AM 89.6 °F 91.1 °F 64.4 °F 43% 29.74 in - Variable 2.3 mph - N/A   Clear
10:50 AM 91.4 °F 92.1 °F 62.6 °F 38% 29.74 in - WSW 4.6 mph - N/A   Clear
11:20 AM 93.2 °F 93.3 °F 60.8 °F 34% 29.74 in - Variable 2.3 mph - N/A   Clear
11:50 AM 95.0 °F 95.2 °F 60.8 °F 32% 29.74 in - Variable 4.6 mph - N/A   Clear
12:20 PM 95.0 °F 95.2 °F 60.8 °F 32% 29.71 in - SSE 5.8 mph - N/A   Clear
12:50 PM 96.8 °F 95.8 °F 57.2 °F 27% 29.71 in - WSW 4.6 mph - N/A   Clear
1:20 PM 98.6 °F 97.2 °F 55.4 °F 24% 29.71 in - SW 5.8 mph - N/A   Clear
1:50 PM 98.6 °F 97.2 °F 55.4 °F 24% 29.71 in - South 8.1 mph - N/A   Clear
2:20 PM 98.6 °F 97.2 °F 55.4 °F 24% 29.68 in - South 8.1 mph - N/A   Clear
2:50 PM 96.8 °F 99.0 °F 64.4 °F 34% 29.68 in 3.7 mi SW 13.8 mph - N/A   Unknown
3:20 PM 96.8 °F 99.0 °F 64.4 °F 34% 29.68 in 2.5 mi SSW 12.7 mph - N/A   Smoke
3:50 PM 95.0 °F 95.2 °F 60.8 °F 32% 29.68 in 2.5 mi SW 13.8 mph - N/A   Smoke
4:20 PM 95.0 °F 95.2 °F 60.8 °F 32% 29.68 in 2.5 mi SSW 13.8 mph - N/A   Smoke
4:50 PM 93.2 °F 93.3 °F 60.8 °F 34% 29.68 in 2.5 mi SSW 12.7 mph - N/A   Smoke
5:20 PM 93.2 °F 91.9 °F 57.2 °F 30% 29.68 in 2.5 mi SW 12.7 mph - N/A   Smoke
5:50 PM 91.4 °F 92.1 °F 62.6 °F 38% 29.68 in 2.5 mi SSW 11.5 mph - N/A   Smoke
6:20 PM 87.8 °F 91.4 °F 68.0 °F 52% 29.71 in 2.5 mi SSW 10.4 mph - N/A   Smoke
6:50 PM 86.0 °F 91.8 °F 71.6 °F 62% 29.71 in 2.5 mi SSW 9.2 mph - N/A   Smoke
7:20 PM 84.2 °F 89.6 °F 71.6 °F 66% 29.71 in 2.5 mi SW 6.9 mph - N/A   Smoke
7:50 PM 82.4 °F 87.2 °F 71.6 °F 70% 29.71 in 2.5 mi SSW 4.6 mph - N/A   Smoke
8:20 PM 80.6 °F 84.6 °F 71.6 °F 74% 29.74 in - SSE 3.5 mph - N/A   Clear
8:50 PM 80.6 °F 84.6 °F 71.6 °F 74% 29.74 in - SE 3.5 mph - N/A   Clear
9:20 PM 78.8 °F - 71.6 °F 78% 29.74 in - SE 4.6 mph - N/A   Clear
9:50 PM 78.8 °F - 71.6 °F 78% 29.74 in - ESE 4.6 mph - N/A   Clear
10:20 PM 78.8 °F - 73.4 °F 83% 29.74 in - East 4.6 mph - N/A   Clear
10:50 PM 78.8 °F - 73.4 °F 83% 29.74 in - ESE 4.6 mph - N/A   Clear
11:20 PM 78.8 °F - 73.4 °F 83% 29.77 in - Variable 2.3 mph - N/A   Clear
11:50 PM 78.8 °F - 73.4 °F 83% 29.77 in - ENE 4.6 mph - N/A   Clear